BMCB-21 Weather Reports


Display with metric or nautical units.
time (UTC)temp
F
wind
direction
speed
MPH
gust
MPH
rain 1hr
in
rain 24hr
in
rain mn
in
humidity
%
barometer
mb
20260503053045 55 0 0.0 0.0 0.00 0.00 0.00 93 1010.5
20260503052035 55 0 0.0 0.0 0.00 0.00 0.00 94 1010.5
20260503051045 54 0 0.0 0.0 0.00 0.00 0.00 94 1010.5
20260503050038 54 0 0.0 0.0 0.00 0.00 0.00 95 1010.4
20260503045037 53 0 0.0 0.0 0.00 0.00 0.00 94 1010.5
20260503044041 53 0 0.0 0.0 0.00 0.00 0.00 95 1010.6
20260503043041 53 0 0.0 0.0 0.00 0.00 0.00 94 1010.5
20260503042044 53 0 0.0 0.0 0.00 0.00 0.00 94 1010.6
20260503041044 53 0 0.0 0.0 0.00 0.00 0.00 94 1010.6
20260503040038 54 0 0.0 0.0 0.00 0.00 0.00 93 1010.8
20260503035040 54 0 0.0 0.0 0.00 0.00 0.00 93 1010.9
20260503034041 54 0 0.0 0.0 0.00 0.00 0.00 92 1010.8
20260503033038 55 0 0.0 0.0 0.00 0.00 0.00 92 1010.8
20260503032040 56 0 0.0 0.0 0.00 0.00 0.00 91 1010.9
20260503031043 56 0 0.0 0.0 0.00 0.00 0.00 91 1010.9
20260503030040 56 0 0.0 0.0 0.00 0.00 0.00 91 1010.9
20260503023042 56 0 0.0 0.0 0.00 0.00 0.00 93 1011.1
20260503022041 55 0 0.0 0.0 0.00 0.00 0.00 93 1011.1
20260503021041 55 0 0.0 0.0 0.00 0.00 0.00 93 1011.1
20260503020043 55 0 0.0 0.0 0.00 0.00 0.00 93 1011.1
20260503015041 55 0 0.0 0.0 0.00 0.00 0.00 93 1011.2
20260503014041 55 0 0.0 0.0 0.00 0.00 0.00 93 1011.2
20260503013043 55 0 0.0 0.0 0.00 0.00 0.00 93 1011.4
20260503012043 55 0 0.0 0.0 0.00 0.00 0.00 92 1011.5
20260503011047 55 0 0.0 0.0 0.00 0.00 0.00 93 1011.5
20260503010043 55 0 0.0 0.0 0.00 0.00 0.00 93 1011.6
20260503005041 55 0 0.0 0.0 0.00 0.00 0.00 92 1011.7
20260503002044 55 0 0.0 0.0 0.00 0.00 0.00 91 1011.8
20260503001043 56 0 0.0 0.0 0.00 0.00 0.00 92 1011.9
20260503000047 56 0 0.0 0.0 0.00 0.00 0.00 92 1012.0
20260502235047 55 0 0.0 0.0 0.00 0.00 0.00 91 1012.0
20260502234048 56 0 0.0 0.0 0.00 0.00 0.00 90 1012.2
20260502233052 57 0 0.0 0.0 0.00 0.00 0.00 90 1012.2
20260502232046 57 0 0.0 0.0 0.00 0.00 0.00 89 1012.1
20260502231045 58 0 0.0 0.0 0.00 0.00 0.00 88 1012.1
20260502230044 58 0 0.0 0.0 0.00 0.00 0.00 87 1012.2
20260502225046 58 0 0.0 0.0 0.00 0.00 0.00 87 1012.2
20260502224045 59 0 0.0 0.0 0.00 0.00 0.00 86 1012.2
20260502223046 59 0 0.0 0.0 0.00 0.00 0.00 86 1012.3
20260502221046 59 0 0.0 0.0 0.00 0.00 0.00 86 1012.2
20260502220047 59 0 0.0 0.0 0.00 0.00 0.00 85 1012.2
20260502215049 59 0 0.0 0.0 0.00 0.00 0.00 85 1012.2
20260502213051 60 0 0.0 0.0 0.00 0.00 0.00 83 1012.3
20260502211048 60 0 0.0 0.0 0.00 0.00 0.00 83 1012.4
20260502210050 61 0 0.0 0.0 0.00 0.00 0.00 82 1012.4
20260502205050 63 0 0.0 0.0 0.00 0.00 0.00 78 1012.4
20260502204049 64 0 0.0 0.0 0.00 0.00 0.00 75 1012.4
20260502203051 63 0 0.0 0.0 0.00 0.00 0.00 78 1012.4
20260502202052 63 0 0.0 0.0 0.00 0.00 0.00 77 1012.5
20260502201054 64 0 0.0 0.0 0.00 0.00 0.00 76 1012.6
20260502200052 64 0 0.0 0.0 0.00 0.00 0.00 75 1012.6
20260502195048 65 0 0.0 0.0 0.00 0.00 0.00 73 1012.6
20260502194049 66 0 0.0 0.0 0.00 0.00 0.00 72 1012.6
20260502192022 68 0 0.0 0.0 0.00 0.00 0.00 68 1012.6
20260502191021 68 0 0.0 0.0 0.00 0.00 0.00 67 1012.6
20260502190021 69 0 0.0 0.0 0.00 0.00 0.00 64 1012.5
20260502185020 70 0 0.0 0.0 0.00 0.00 0.00 62 1012.6
20260502184020 71 0 0.0 0.0 0.00 0.00 0.00 62 1012.5
20260502183021 71 0 0.0 0.0 0.00 0.00 0.00 61 1012.5
20260502182023 72 0 0.0 0.0 0.00 0.00 0.00 60 1012.5
20260502164022 74 0 0.0 0.0 0.00 0.00 0.00 55 1012.8
20260502163025 74 0 0.0 0.0 0.00 0.00 0.00 55 1013.0
20260502162022 74 0 0.0 0.0 0.00 0.00 0.00 54 1013.2
20260502161021 75 0 0.0 0.0 0.00 0.00 0.00 54 1013.2
20260502152022 75 0 0.0 0.0 0.00 0.00 0.00 54 1013.8
20260502123022 72 0 0.0 0.0 0.00 0.00 0.00 66 1016.5
20260502121020 70 0 0.0 0.0 0.00 0.00 0.00 68 1016.8
20260502114021 69 0 0.0 0.0 0.00 0.00 0.00 73 1017.2
20260502113045 69 0 0.0 0.0 0.00 0.00 0.00 70 1017.3
20260502112044 71 0 0.0 0.0 0.00 0.00 0.00 66 1017.3
20260502110020 71 0 0.0 0.0 0.00 0.00 0.00 62 1017.3
20260502105046 72 0 0.0 0.0 0.00 0.00 0.00 62 1017.4
20260502104021 72 0 0.0 0.0 0.00 0.00 0.00 61 1017.4
20260502103019 72 0 0.0 0.0 0.00 0.00 0.00 62 1017.4
20260502102022 71 0 0.0 0.0 0.00 0.00 0.00 61 1017.6
20260502091021 71 0 0.0 0.0 0.00 0.00 0.00 63 1017.9
20260502070022 60 0 0.0 0.0 0.00 0.00 0.00 79 1018.7
20260502065022 59 0 0.0 0.0 0.00 0.00 0.00 82 1018.7
20260502064022 57 0 0.0 0.0 0.00 0.00 0.00 85 1018.7
20260502063021 56 0 0.0 0.0 0.00 0.00 0.00 84 1018.8
20260502062039 57 0 0.0 0.0 0.00 0.00 0.00 83 1018.7
20260502061042 55 0 0.0 0.0 0.00 0.00 0.00 85 1018.8
20260502055042 53 0 0.0 0.0 0.00 0.00 0.00 87 1018.9
20260502054043 51 0 0.0 0.0 0.00 0.00 0.00 89 1018.7